Tracking 35055 objects as of 18-Aug-2026
HD Live streaming from Space Station
objects crossing your sky now

ICEYE-X57

Track ICEYE-X57 now!
10-day predictions
ICEYE-X57 is classified as:


NORAD ID: 64578
Int'l Code: 2025-135BC
Launch date: June 23, 2025
Source: (FIN)
Launch site: AIR FORCE WESTERN TEST RANGE (AFWTR)

Uplink (MHz):
Downlink (MHz): 2275.880
Beacon (MHz):
Mode: FM
Call sign:
Status: Inactive

Your satellite tracking list
Your tracking list is empty




NASA's NSSDC Master Catalog

Two Line Element Set (TLE):
1 64578U 25135BC  26230.60304832  .00003936  00000-0  31433-3 0  9993
2 64578  97.8114 347.3074 0002037  49.7518 310.3883 15.00853515 63385
Source of the keplerian elements: AFSPC